DLH01E EDDF-LEBL

Flight info

Callsign DLH01E
Flight time 1h 42m
Altitude 36000
Route ANEKI2L/18 ANEKI Y163 HERBI Y164 MOPAN DCT LUTIX DCT BENOT DCT NEMOS DCT GEVEA DCT INCUS DCT BALSI DCT RETNO DCT TUPOX DCT MTG DCT DIVKO DCT NILDU DCT BISBA
Aircraft A321/M-SDE3FGHIRWY/LB1

Departure

Time 2026-05-07 11:38
Airport Frankfurt Main Airport (EDDF)

Arrival

Time 2026-05-07 13:20
Airport Josep Tarradellas Barcelona-El Prat Airport (LEBL)
Time Latitude Longitude Altitude Speed Heading
2026-05-07 10:56 50.04166 8.56070 362 ft 0 kts 159°
2026-05-07 11:31 50.04154 8.56077 363 ft 4 kts 159°
2026-05-07 11:32 50.04074 8.56055 360 ft 9 kts 246°
2026-05-07 11:32 50.04050 8.55954 361 ft 11 kts 249°
2026-05-07 11:32 50.04022 8.55838 365 ft 12 kts 250°
2026-05-07 11:33 50.03990 8.55703 362 ft 14 kts 250°
2026-05-07 11:33 50.03952 8.55547 361 ft 17 kts 250°
2026-05-07 11:33 50.03909 8.55368 362 ft 18 kts 249°
2026-05-07 11:33 50.03862 8.55171 362 ft 20 kts 250°
2026-05-07 11:34 50.03813 8.54963 361 ft 21 kts 250°
2026-05-07 11:34 50.03761 8.54746 362 ft 22 kts 250°
2026-05-07 11:34 50.03710 8.54533 361 ft 21 kts 249°
2026-05-07 11:34 50.03658 8.54318 361 ft 22 kts 250°
2026-05-07 11:35 50.03605 8.54094 365 ft 23 kts 249°
2026-05-07 11:35 50.03553 8.53879 359 ft 22 kts 249°
2026-05-07 11:35 50.03500 8.53654 361 ft 23 kts 250°
2026-05-07 11:35 50.03444 8.53421 361 ft 24 kts 249°
2026-05-07 11:36 50.03387 8.53184 362 ft 19 kts 250°
2026-05-07 11:36 50.03341 8.52991 362 ft 19 kts 250°
2026-05-07 11:36 50.03296 8.52802 362 ft 15 kts 250°
2026-05-07 11:36 50.03261 8.52656 361 ft 11 kts 249°
2026-05-07 11:37 50.03217 8.52595 362 ft 9 kts 187°
2026-05-07 11:37 50.03097 8.52596 360 ft 40 kts 180°
2026-05-07 11:37 50.02546 8.52601 367 ft 115 kts 179°
2026-05-07 11:37 50.01536 8.52611 367 ft 172 kts 181°
2026-05-07 11:38 50.00715 8.52626 766 ft 173 kts 181°
2026-05-07 11:38 49.99089 8.52679 1754 ft 179 kts 180°
2026-05-07 11:38 49.97778 8.52765 2141 ft 200 kts 179°
2026-05-07 11:38 49.96315 8.52869 2460 ft 222 kts 179°
2026-05-07 11:39 49.94707 8.52987 2956 ft 235 kts 178°
2026-05-07 11:39 49.93078 8.53108 3817 ft 236 kts 179°
2026-05-07 11:39 49.91423 8.53229 4669 ft 239 kts 179°
2026-05-07 11:39 49.89747 8.53349 5495 ft 242 kts 179°
2026-05-07 11:40 49.88067 8.53468 6262 ft 246 kts 179°
2026-05-07 11:40 49.86318 8.53592 7011 ft 249 kts 179°
2026-05-07 11:40 49.84579 8.53712 7743 ft 251 kts 179°
2026-05-07 11:40 49.83361 8.53793 8267 ft 253 kts 179°
2026-05-07 11:41 49.81612 8.53910 9038 ft 256 kts 180°
2026-05-07 11:41 49.79817 8.54033 9824 ft 258 kts 180°
2026-05-07 11:41 49.78002 8.54121 10518 ft 260 kts 185°
2026-05-07 11:41 49.76141 8.53903 10835 ft 281 kts 187°
2026-05-07 11:42 49.74092 8.53625 11034 ft 304 kts 187°
2026-05-07 11:42 49.71906 8.53323 11186 ft 327 kts 187°
2026-05-07 11:42 49.69555 8.52999 11319 ft 348 kts 187°
2026-05-07 11:42 49.66949 8.52646 11732 ft 360 kts 186°
2026-05-07 11:43 49.64548 8.52329 12286 ft 364 kts 186°
2026-05-07 11:43 49.62035 8.52000 12955 ft 366 kts 186°
2026-05-07 11:43 49.59482 8.51665 13596 ft 370 kts 186°
2026-05-07 11:43 49.56888 8.51324 14166 ft 374 kts 186°
2026-05-07 11:44 49.54293 8.50985 14731 ft 377 kts 186°
2026-05-07 11:44 49.51688 8.50650 15298 ft 379 kts 186°
2026-05-07 11:44 49.49046 8.50310 15867 ft 382 kts 186°
2026-05-07 11:44 49.46252 8.49946 16480 ft 385 kts 186°
2026-05-07 11:45 49.43652 8.49606 17047 ft 388 kts 186°
2026-05-07 11:45 49.40991 8.49258 17599 ft 390 kts 186°
2026-05-07 11:45 49.38282 8.48902 18157 ft 393 kts 187°
2026-05-07 11:45 49.35547 8.48542 18636 ft 395 kts 187°
2026-05-07 11:46 49.32761 8.48176 19090 ft 398 kts 187°
2026-05-07 11:46 49.30039 8.47818 19547 ft 400 kts 187°
2026-05-07 11:46 49.27181 8.47445 20022 ft 403 kts 187°
2026-05-07 11:46 49.24429 8.47088 20472 ft 405 kts 187°
2026-05-07 11:47 49.21581 8.46718 20929 ft 408 kts 187°
2026-05-07 11:47 49.18747 8.46350 21387 ft 410 kts 187°
2026-05-07 11:47 49.15901 8.45981 21838 ft 412 kts 187°
2026-05-07 11:47 49.13033 8.45609 22286 ft 415 kts 187°
2026-05-07 11:48 49.10145 8.45234 22735 ft 417 kts 187°
2026-05-07 11:48 49.07266 8.44856 23188 ft 419 kts 188°
2026-05-07 11:48 49.04370 8.44064 23599 ft 419 kts 195°
2026-05-07 11:48 49.01546 8.43075 23958 ft 422 kts 195°
2026-05-07 11:49 48.98652 8.42064 24328 ft 424 kts 195°
2026-05-07 11:49 48.95772 8.41059 24704 ft 426 kts 195°
2026-05-07 11:49 48.92882 8.40052 25076 ft 428 kts 195°
2026-05-07 11:49 48.89973 8.39040 25450 ft 430 kts 195°
2026-05-07 11:50 48.87033 8.38020 25818 ft 432 kts 194°
2026-05-07 11:50 48.84114 8.37011 26180 ft 434 kts 194°
2026-05-07 11:50 48.81164 8.35993 26544 ft 436 kts 194°
2026-05-07 11:50 48.78200 8.34967 26905 ft 438 kts 194°
2026-05-07 11:51 48.75132 8.33878 27258 ft 440 kts 195°
2026-05-07 11:51 48.72192 8.32808 27589 ft 442 kts 195°
2026-05-07 11:51 48.69154 8.31689 27931 ft 445 kts 195°
2026-05-07 11:51 48.66129 8.30573 28277 ft 446 kts 195°
2026-05-07 11:52 48.63040 8.29437 28593 ft 448 kts 195°
2026-05-07 11:52 48.60004 8.28322 28896 ft 450 kts 195°
2026-05-07 11:52 48.56941 8.27198 29182 ft 452 kts 195°
2026-05-07 11:52 48.53884 8.26084 29467 ft 453 kts 195°
2026-05-07 11:53 48.50817 8.24974 29844 ft 452 kts 195°
2026-05-07 11:53 48.47671 8.23839 30228 ft 451 kts 195°
2026-05-07 11:53 48.44680 8.22754 30542 ft 450 kts 195°
2026-05-07 11:53 48.41589 8.21629 30865 ft 450 kts 195°
2026-05-07 11:54 48.38542 8.20517 31175 ft 450 kts 195°
2026-05-07 11:54 48.35499 8.19406 31454 ft 450 kts 195°
2026-05-07 11:54 48.32457 8.18297 31738 ft 450 kts 195°
2026-05-07 11:54 48.29420 8.17194 32036 ft 450 kts 195°
2026-05-07 11:55 48.26375 8.16078 32325 ft 449 kts 197°
2026-05-07 11:55 48.23435 8.14539 32602 ft 447 kts 206°
2026-05-07 11:55 48.20647 8.12492 32881 ft 446 kts 208°
2026-05-07 11:55 48.17874 8.10418 33170 ft 446 kts 208°
2026-05-07 11:56 48.15057 8.08329 33464 ft 445 kts 208°
2026-05-07 11:56 48.12278 8.06279 33762 ft 445 kts 208°
2026-05-07 11:56 48.09504 8.04240 34066 ft 444 kts 208°
2026-05-07 11:56 48.06699 8.02187 34304 ft 444 kts 208°
2026-05-07 11:57 48.03921 8.00157 34532 ft 443 kts 208°
2026-05-07 11:57 48.01184 7.98153 34754 ft 443 kts 208°
2026-05-07 11:57 47.99316 7.96782 34911 ft 442 kts 208°
2026-05-07 11:57 47.95625 7.94073 35197 ft 442 kts 208°
2026-05-07 11:58 47.92873 7.92053 35394 ft 441 kts 208°
2026-05-07 11:58 47.91044 7.90714 35542 ft 441 kts 208°
2026-05-07 11:58 47.88275 7.88693 35760 ft 441 kts 208°
2026-05-07 11:58 47.85541 7.86702 35963 ft 441 kts 208°
2026-05-07 11:59 47.82789 7.84693 36042 ft 441 kts 208°
2026-05-07 11:59 47.77276 7.80679 36051 ft 440 kts 208°
2026-05-07 12:00 47.71771 7.76681 36051 ft 440 kts 208°
2026-05-07 12:00 47.66269 7.72695 36055 ft 440 kts 208°
2026-05-07 12:01 47.60772 7.68715 36059 ft 440 kts 208°
2026-05-07 12:01 47.55274 7.64751 36057 ft 439 kts 208°
2026-05-07 12:02 47.49772 7.60800 36056 ft 439 kts 208°
2026-05-07 12:02 47.44277 7.56865 36053 ft 439 kts 208°
2026-05-07 12:03 47.38779 7.52926 36050 ft 439 kts 208°
2026-05-07 12:03 47.33292 7.48996 36025 ft 439 kts 208°
2026-05-07 12:04 47.27795 7.45071 36029 ft 438 kts 208°
2026-05-07 12:04 47.22301 7.41169 36029 ft 438 kts 208°
2026-05-07 12:05 47.16987 7.36747 36031 ft 434 kts 221°
2026-05-07 12:05 47.12881 7.30357 36031 ft 430 kts 233°
2026-05-07 12:06 47.09165 7.23487 36028 ft 430 kts 233°
2026-05-07 12:06 47.05419 7.16640 36028 ft 430 kts 233°
2026-05-07 12:07 47.01642 7.09724 36030 ft 430 kts 233°
2026-05-07 12:07 46.97927 7.02923 36028 ft 430 kts 233°
2026-05-07 12:08 46.94189 6.96110 36036 ft 428 kts 233°
2026-05-07 12:08 46.90229 6.89516 36029 ft 430 kts 223°
2026-05-07 12:09 46.85584 6.83966 36029 ft 431 kts 221°
2026-05-07 12:09 46.80933 6.78432 36029 ft 431 kts 221°
2026-05-07 12:10 46.76288 6.72911 36009 ft 430 kts 222°
2026-05-07 12:10 46.71646 6.67399 36023 ft 429 kts 222°
2026-05-07 12:11 46.67007 6.61904 36025 ft 429 kts 222°
2026-05-07 12:11 46.62377 6.56444 36020 ft 429 kts 222°
2026-05-07 12:12 46.57738 6.50973 36017 ft 429 kts 222°
2026-05-07 12:12 46.53070 6.45493 36021 ft 429 kts 222°
2026-05-07 12:13 46.48453 6.40080 36019 ft 429 kts 222°
2026-05-07 12:13 46.43805 6.34639 36013 ft 429 kts 222°
2026-05-07 12:14 46.39130 6.29180 36005 ft 429 kts 222°
2026-05-07 12:14 46.34459 6.23739 36027 ft 428 kts 222°
2026-05-07 12:15 46.29808 6.18350 36030 ft 428 kts 222°
2026-05-07 12:15 46.24730 6.13766 36030 ft 435 kts 205°
2026-05-07 12:16 46.18745 6.11739 36024 ft 442 kts 193°
2026-05-07 12:16 46.12671 6.10398 36027 ft 442 kts 193°
2026-05-07 12:17 46.06556 6.09035 36025 ft 441 kts 193°
2026-05-07 12:17 46.00517 6.07694 36003 ft 441 kts 193°
2026-05-07 12:18 45.94421 6.06347 36027 ft 440 kts 193°
2026-05-07 12:18 45.88365 6.05017 36030 ft 439 kts 193°
2026-05-07 12:19 45.82389 6.03700 36022 ft 439 kts 193°
2026-05-07 12:19 45.76295 6.02351 36022 ft 437 kts 193°
2026-05-07 12:20 45.71252 6.01235 36018 ft 437 kts 193°
2026-05-07 12:20 45.65208 5.99906 36002 ft 437 kts 193°
2026-05-07 12:21 45.59194 5.98584 36003 ft 436 kts 194°
2026-05-07 12:21 45.53200 5.97268 36001 ft 435 kts 194°
2026-05-07 12:22 45.47212 5.95952 35999 ft 435 kts 194°
2026-05-07 12:22 45.41293 5.94270 35983 ft 433 kts 198°
2026-05-07 12:23 45.35444 5.92320 35994 ft 432 kts 198°
2026-05-07 12:23 45.29590 5.90398 35993 ft 431 kts 198°
2026-05-07 12:24 45.23736 5.88562 35993 ft 431 kts 197°
2026-05-07 12:24 45.17877 5.86767 35988 ft 430 kts 197°
2026-05-07 12:25 45.12021 5.84963 35992 ft 430 kts 197°
2026-05-07 12:25 45.06170 5.83147 35986 ft 430 kts 197°
2026-05-07 12:26 45.00329 5.81345 35977 ft 429 kts 197°
2026-05-07 12:26 44.94493 5.79550 35980 ft 428 kts 197°
2026-05-07 12:27 44.88664 5.77758 35974 ft 428 kts 197°
2026-05-07 12:27 44.82839 5.75967 35963 ft 428 kts 197°
2026-05-07 12:28 44.77033 5.74189 35973 ft 427 kts 197°
2026-05-07 12:28 44.71223 5.72417 35973 ft 427 kts 197°
2026-05-07 12:29 44.65375 5.70641 35973 ft 427 kts 197°
2026-05-07 12:29 44.59568 5.68866 35967 ft 426 kts 197°
2026-05-07 12:30 44.53773 5.67109 35964 ft 426 kts 197°
2026-05-07 12:30 44.47962 5.65354 35967 ft 426 kts 197°
2026-05-07 12:31 44.42133 5.63593 35967 ft 426 kts 197°
2026-05-07 12:31 44.36432 5.61506 35970 ft 420 kts 206°
2026-05-07 12:32 44.30990 5.58507 35968 ft 420 kts 205°
2026-05-07 12:32 44.25549 5.55521 35971 ft 419 kts 205°
2026-05-07 12:33 44.17408 5.51078 35971 ft 419 kts 205°
2026-05-07 12:33 44.11979 5.48121 35975 ft 419 kts 205°
2026-05-07 12:34 44.06549 5.45173 35975 ft 418 kts 205°
2026-05-07 12:34 44.01129 5.42235 35975 ft 417 kts 205°
2026-05-07 12:35 43.95719 5.39304 35972 ft 417 kts 205°
2026-05-07 12:35 43.90269 5.36355 35955 ft 418 kts 205°
2026-05-07 12:36 43.84858 5.33434 35973 ft 416 kts 205°
2026-05-07 12:36 43.79470 5.30521 35971 ft 416 kts 205°
2026-05-07 12:37 43.74075 5.27613 35973 ft 416 kts 205°
2026-05-07 12:37 43.68643 5.24701 35972 ft 415 kts 205°
2026-05-07 12:38 43.63256 5.21819 35976 ft 414 kts 205°
2026-05-07 12:38 43.57882 5.18942 35995 ft 414 kts 205°
2026-05-07 12:39 43.52501 5.16068 36002 ft 414 kts 205°
2026-05-07 12:39 43.47130 5.13200 36003 ft 414 kts 205°
2026-05-07 12:40 43.41721 5.10326 36003 ft 414 kts 205°
2026-05-07 12:40 43.36623 5.06799 36004 ft 408 kts 217°
2026-05-07 12:41 43.31946 5.02360 35985 ft 408 kts 217°
2026-05-07 12:41 43.27265 4.97963 36000 ft 407 kts 217°
2026-05-07 12:42 43.22564 4.93549 36003 ft 407 kts 217°
2026-05-07 12:42 43.17889 4.89159 36001 ft 407 kts 217°
2026-05-07 12:43 43.13225 4.84794 36006 ft 407 kts 217°
2026-05-07 12:43 43.08555 4.80436 36006 ft 405 kts 217°
2026-05-07 12:44 43.04075 4.75836 36003 ft 402 kts 223°
2026-05-07 12:44 43.00563 4.71572 36011 ft 402 kts 223°
2026-05-07 12:45 42.96375 4.66503 36011 ft 402 kts 223°
2026-05-07 12:45 42.92172 4.61430 36007 ft 402 kts 223°
2026-05-07 12:46 42.87979 4.56392 36027 ft 401 kts 223°
2026-05-07 12:46 42.83789 4.51365 36020 ft 401 kts 223°
2026-05-07 12:47 42.79589 4.46333 36012 ft 401 kts 223°
2026-05-07 12:47 42.75386 4.41301 36020 ft 401 kts 223°
2026-05-07 12:48 42.71216 4.36309 36017 ft 401 kts 223°
2026-05-07 12:48 42.67031 4.31309 36015 ft 400 kts 223°
2026-05-07 12:49 42.62841 4.26311 36014 ft 400 kts 223°
2026-05-07 12:49 42.58655 4.21330 36015 ft 400 kts 223°
2026-05-07 12:50 42.54471 4.16360 36017 ft 400 kts 222°
2026-05-07 12:50 42.50286 4.11396 36012 ft 399 kts 222°
2026-05-07 12:51 42.46092 4.06452 36022 ft 399 kts 222°
2026-05-07 12:51 42.41903 4.01519 36044 ft 399 kts 222°
2026-05-07 12:52 42.37715 3.96591 35945 ft 399 kts 222°
2026-05-07 12:52 42.35622 3.94126 35380 ft 398 kts 222°
2026-05-07 12:52 42.33537 3.91674 34712 ft 397 kts 222°
2026-05-07 12:53 42.31465 3.89240 34067 ft 395 kts 222°
2026-05-07 12:53 42.29388 3.86801 33279 ft 394 kts 222°
2026-05-07 12:53 42.27320 3.84378 32567 ft 392 kts 222°
2026-05-07 12:53 42.25260 3.81963 31767 ft 392 kts 222°
2026-05-07 12:54 42.23193 3.79540 30909 ft 395 kts 222°
2026-05-07 12:54 42.21113 3.77107 29992 ft 398 kts 222°
2026-05-07 12:54 42.19012 3.74655 29012 ft 400 kts 222°
2026-05-07 12:54 42.16917 3.72217 28421 ft 394 kts 222°
2026-05-07 12:55 42.14849 3.69818 27841 ft 389 kts 222°
2026-05-07 12:55 42.12815 3.67457 27244 ft 383 kts 222°
2026-05-07 12:55 42.10814 3.65130 26839 ft 374 kts 223°
2026-05-07 12:55 42.09052 3.62616 26570 ft 368 kts 233°
2026-05-07 12:56 42.07690 3.59705 26324 ft 369 kts 243°
2026-05-07 12:56 42.06643 3.56557 26042 ft 367 kts 245°
2026-05-07 12:56 42.05612 3.53418 25452 ft 365 kts 245°
2026-05-07 12:56 42.04584 3.50305 24840 ft 363 kts 245°
2026-05-07 12:57 42.03557 3.47207 24247 ft 363 kts 245°
2026-05-07 12:57 42.02527 3.44114 23718 ft 362 kts 245°
2026-05-07 12:57 42.01490 3.41006 23336 ft 365 kts 245°
2026-05-07 12:57 42.00448 3.37885 22926 ft 365 kts 245°
2026-05-07 12:58 41.99406 3.34764 22511 ft 364 kts 245°
2026-05-07 12:58 41.98375 3.31664 22112 ft 363 kts 245°
2026-05-07 12:58 41.97346 3.28577 21715 ft 361 kts 245°
2026-05-07 12:58 41.96318 3.25502 21319 ft 360 kts 245°
2026-05-07 12:59 41.95278 3.22395 20928 ft 359 kts 245°
2026-05-07 12:59 41.94478 3.19271 20550 ft 359 kts 255°
2026-05-07 12:59 41.93910 3.15965 20167 ft 358 kts 255°
2026-05-07 12:59 41.93341 3.12666 19790 ft 357 kts 255°
2026-05-07 13:00 41.92779 3.09427 19426 ft 356 kts 255°
2026-05-07 13:00 41.92216 3.06202 19065 ft 354 kts 255°
2026-05-07 13:00 41.91653 3.02980 18703 ft 354 kts 255°
2026-05-07 13:00 41.91091 2.99778 18355 ft 352 kts 255°
2026-05-07 13:01 41.90526 2.96561 17961 ft 352 kts 255°
2026-05-07 13:01 41.89959 2.93339 17554 ft 350 kts 255°
2026-05-07 13:01 41.89409 2.90211 17164 ft 348 kts 255°
2026-05-07 13:01 41.88854 2.87059 16762 ft 346 kts 255°
2026-05-07 13:02 41.88293 2.83924 16372 ft 344 kts 253°
2026-05-07 13:02 41.87328 2.81024 15996 ft 340 kts 235°
2026-05-07 13:02 41.85926 2.78446 15624 ft 338 kts 232°
2026-05-07 13:02 41.84538 2.75944 15253 ft 335 kts 232°
2026-05-07 13:03 41.83143 2.73437 14946 ft 335 kts 232°
2026-05-07 13:03 41.81740 2.70922 14705 ft 336 kts 232°
2026-05-07 13:03 41.80343 2.68424 14455 ft 335 kts 232°
2026-05-07 13:03 41.78948 2.65932 14218 ft 332 kts 231°
2026-05-07 13:04 41.77563 2.63456 13983 ft 332 kts 232°
2026-05-07 13:04 41.76176 2.60974 13737 ft 334 kts 232°
2026-05-07 13:04 41.74787 2.58494 13468 ft 332 kts 232°
2026-05-07 13:04 41.73407 2.56026 13193 ft 329 kts 232°
2026-05-07 13:05 41.72035 2.53573 12942 ft 329 kts 232°
2026-05-07 13:05 41.70659 2.51115 12675 ft 329 kts 232°
2026-05-07 13:05 41.69310 2.48708 12419 ft 327 kts 232°
2026-05-07 13:05 41.67869 2.46143 12147 ft 326 kts 232°
2026-05-07 13:06 41.66949 2.44507 11981 ft 325 kts 232°
2026-05-07 13:06 41.65613 2.42137 11729 ft 324 kts 232°
2026-05-07 13:06 41.63770 2.38863 11387 ft 324 kts 233°
2026-05-07 13:06 41.62872 2.37268 11225 ft 323 kts 233°
2026-05-07 13:07 41.61525 2.34876 11030 ft 322 kts 233°
2026-05-07 13:07 41.59721 2.31677 10993 ft 322 kts 233°
2026-05-07 13:07 41.58805 2.30056 10995 ft 323 kts 233°
2026-05-07 13:07 41.57456 2.27666 11011 ft 323 kts 233°
2026-05-07 13:08 41.56109 2.25283 11007 ft 322 kts 233°
2026-05-07 13:08 41.54751 2.22886 11004 ft 322 kts 233°
2026-05-07 13:08 41.53399 2.20497 10999 ft 323 kts 233°
2026-05-07 13:08 41.52065 2.18146 11005 ft 323 kts 233°
2026-05-07 13:09 41.50698 2.15739 10999 ft 323 kts 233°
2026-05-07 13:09 41.49345 2.13359 10998 ft 323 kts 233°
2026-05-07 13:09 41.47971 2.10939 10990 ft 322 kts 233°
2026-05-07 13:09 41.46637 2.08589 10794 ft 311 kts 233°
2026-05-07 13:10 41.45359 2.06339 10674 ft 296 kts 233°
2026-05-07 13:10 41.44138 2.04191 10446 ft 287 kts 233°
2026-05-07 13:10 41.42937 2.02086 10076 ft 285 kts 233°
2026-05-07 13:10 41.41722 1.99961 9651 ft 284 kts 233°
2026-05-07 13:11 41.40542 1.97893 9210 ft 283 kts 233°
2026-05-07 13:11 41.39354 1.95804 8784 ft 282 kts 233°
2026-05-07 13:11 41.38170 1.93726 8378 ft 281 kts 233°
2026-05-07 13:11 41.36985 1.91651 7964 ft 280 kts 233°
2026-05-07 13:12 41.35787 1.89572 7552 ft 279 kts 233°
2026-05-07 13:12 41.34615 1.87505 7166 ft 278 kts 233°
2026-05-07 13:12 41.33454 1.85448 6763 ft 277 kts 233°
2026-05-07 13:12 41.32314 1.83423 6375 ft 277 kts 233°
2026-05-07 13:13 41.31144 1.81337 5949 ft 277 kts 233°
2026-05-07 13:13 41.30001 1.79298 5694 ft 270 kts 233°
2026-05-07 13:13 41.28887 1.77345 5566 ft 259 kts 228°
2026-05-07 13:13 41.27470 1.76011 5433 ft 247 kts 197°
2026-05-07 13:14 41.25810 1.75605 5198 ft 240 kts 184°
2026-05-07 13:14 41.24148 1.75434 4870 ft 239 kts 182°
2026-05-07 13:14 41.22515 1.75576 4542 ft 233 kts 158°
2026-05-07 13:14 41.21226 1.76756 4286 ft 221 kts 124°
2026-05-07 13:15 41.20693 1.78555 4145 ft 205 kts 98°
2026-05-07 13:15 41.20576 1.80428 3816 ft 203 kts 89°
2026-05-07 13:15 41.20883 1.82245 3443 ft 203 kts 66°
2026-05-07 13:15 41.21472 1.83939 3078 ft 202 kts 66°
2026-05-07 13:16 41.22054 1.85612 3003 ft 200 kts 67°
2026-05-07 13:16 41.22636 1.87294 3003 ft 202 kts 66°
2026-05-07 13:16 41.23208 1.88949 2928 ft 190 kts 67°
2026-05-07 13:16 41.23747 1.90510 2726 ft 183 kts 68°
2026-05-07 13:17 41.24268 1.92022 2500 ft 180 kts 67°
2026-05-07 13:17 41.24787 1.93531 2267 ft 179 kts 66°
2026-05-07 13:17 41.25300 1.95018 2024 ft 172 kts 68°
2026-05-07 13:17 41.25783 1.96417 1815 ft 157 kts 70°
2026-05-07 13:18 41.26232 1.97724 1595 ft 154 kts 68°
2026-05-07 13:18 41.26669 1.98994 1388 ft 147 kts 69°
2026-05-07 13:18 41.27083 2.00199 1183 ft 140 kts 69°
2026-05-07 13:18 41.27480 2.01361 997 ft 137 kts 69°
2026-05-07 13:19 41.27863 2.02496 814 ft 134 kts 69°
2026-05-07 13:19 41.28257 2.03637 657 ft 136 kts 68°
2026-05-07 13:19 41.28658 2.04775 467 ft 138 kts 69°
2026-05-07 13:19 41.29061 2.05946 294 ft 139 kts 70°
2026-05-07 13:20 41.29457 2.07113 100 ft 135 kts 69°
2026-05-07 13:20 41.29829 2.08197 22 ft 116 kts 69°
2026-05-07 13:20 41.30083 2.08947 17 ft 64 kts 65°
2026-05-07 13:20 41.30156 2.09221 16 ft 21 kts 90°
2026-05-07 13:21 41.30131 2.09376 18 ft 10 kts 111°
2026-05-07 13:21 41.30082 2.09426 20 ft 9 kts 179°
2026-05-07 13:21 41.30037 2.09361 20 ft 12 kts 245°
2026-05-07 13:21 41.30000 2.09254 20 ft 14 kts 245°
2026-05-07 13:22 41.29956 2.09125 18 ft 17 kts 245°
2026-05-07 13:22 41.29902 2.08969 18 ft 19 kts 245°
2026-05-07 13:22 41.29847 2.08809 20 ft 19 kts 246°
2026-05-07 13:22 41.29790 2.08640 22 ft 21 kts 245°
2026-05-07 13:23 41.29729 2.08462 21 ft 16 kts 245°
2026-05-07 13:23 41.29681 2.08321 21 ft 17 kts 245°
2026-05-07 13:23 41.29615 2.08235 21 ft 13 kts 166°
2026-05-07 13:23 41.29524 2.08284 21 ft 15 kts 156°
2026-05-07 13:24 41.29422 2.08345 22 ft 17 kts 155°
2026-05-07 13:24 41.29318 2.08408 21 ft 14 kts 156°
2026-05-07 13:24 41.29221 2.08454 21 ft 15 kts 180°
2026-05-07 13:24 41.29117 2.08411 21 ft 16 kts 199°
2026-05-07 13:25 41.29041 2.08339 21 ft 14 kts 243°
2026-05-07 13:25 41.28997 2.08213 22 ft 14 kts 245°
2026-05-07 13:25 41.28960 2.08104 21 ft 14 kts 245°
2026-05-07 13:25 41.28925 2.08003 23 ft 10 kts 245°
2026-05-07 13:26 41.28916 2.07940 21 ft 5 kts 307°
2026-05-07 13:26 41.28953 2.07915 21 ft 7 kts 335°
2026-05-07 13:26 41.28972 2.07905 21 ft 2 kts 336°
2026-05-07 13:26 41.28977 2.07901 21 ft 1 kts 336°
2026-05-07 13:27 41.28978 2.07901 21 ft 0 kts 336°